QPF
0.00 0.00 0.00 0.00 0.00 0.00 0.00 0.01 0.01 0.01 0.00 0.00 0.00 0.00 0.00 0.01 0.01 0.02 0.03 0.04 0.05 0.05 0.05 0.05 0.04 0.04 0.05 0.05 0.06 0.07 0.09 0.11 0.14 0.17 0.16 0.12 0.10 0.11
0.00 0.00 0.00 0.00 0.00 0.00 0.00 0.00 0.01 0.01 0.01 0.00 0.00 0.01 0.01 0.01 0.01 0.02 0.03 0.05 0.06 0.06 0.06 0.06 0.06 0.05 0.05 0.05 0.05 0.07 0.09 0.10 0.10 0.12 0.14 0.14 0.12 0.11
0.00 0.00 0.00 0.00 0.00 0.00 0.00 0.00 0.01 0.01 0.01 0.01 0.01 0.01 0.01 0.01 0.01 0.01 0.02 0.04 0.05 0.06 0.06 0.06 0.06 0.05 0.05 0.04 0.04 0.05 0.06 0.08 0.10 0.10 0.10 0.11 0.11 0.11
0.00 0.00 0.00 0.00 0.00 0.00 0.00 0.00 0.00 0.01 0.01 0.01 0.01 0.01 0.01 0.01 0.01 0.01 0.02 0.02 0.03 0.04 0.05 0.05 0.05 0.04 0.04 0.04 0.03 0.03 0.04 0.05 0.08 0.10 0.10 0.10 0.09 0.08
0.00 0.00 0.00 0.00 0.00 0.00 0.00 0.00 0.00 0.00 0.01 0.01 0.01 0.01 0.01 0.01 0.02 0.02 0.02 0.02 0.02 0.02 0.02 0.02 0.02 0.02 0.02 0.02 0.03 0.03 0.04 0.05 0.06 0.08 0.10 0.11 0.10 0.09
0.00 0.00 0.00 0.00 0.00 0.00 0.00 0.01 0.01 0.00 0.00 0.01 0.01 0.01 0.01 0.01 0.02 0.02 0.02 0.01 0.01 0.01 0.01 0.01 0.01 0.01 0.01 0.01 0.01 0.02 0.03 0.04 0.06 0.08 0.09 0.11 0.11 0.11
0.00 0.00 0.00 0.00 0.00 0.00 0.00 0.00 0.00 0.00 0.00 0.01 0.01 0.01 0.01 0.01 0.01 0.01 0.01 0.01 0.01 0.01 0.01 0.01 0.01 0.02 0.02 0.02 0.01 0.01 0.02 0.04 0.05 0.06 0.07 0.09 0.12 0.12
0.00 0.00 0.00 0.00 0.00 0.00 0.00 0.00 0.00 0.00 0.01 0.01 0.02 0.02 0.02 0.02 0.02 0.01 0.01 0.01 0.01 0.01 0.01 0.01 0.01 0.01 0.02 0.02 0.02 0.01 0.01 0.02 0.03 0.04 0.05 0.06 0.08 0.10
0.00 0.00 0.00 0.00 0.00 0.00 0.00 0.00 0.00 0.00 0.00 0.01 0.01 0.01 0.02 0.02 0.02 0.02 0.02 0.02 0.01 0.01 0.01 0.01 0.01 0.01 0.01 0.02 0.02 0.01 0.01 0.01 0.01 0.03 0.03 0.04 0.05 0.06
0.00 0.00 0.00 0.00 0.00 0.00 0.00 0.00 0.00 0.00 0.00 0.00 0.00 0.00 0.01 0.01 0.01 0.01 0.01 0.01 0.01 0.01 0.02 0.02 0.01 0.01 0.01 0.01 0.01 0.01 0.01 0.01 0.01 0.02 0.03 0.03 0.04 0.04
0.00 0.00 0.00 0.00 0.00 0.00 0.00 0.00 0.00 0.00 0.00 0.00 0.00 0.00 0.00 0.00 0.01 0.01 0.01 0.01 0.01 0.01 0.01 0.01 0.01 0.00 0.00 0.00 0.01 0.01 0.01 0.01 0.01 0.02 0.03 0.03 0.04 0.05
0.00 0.00 0.00 0.00 0.00 0.00 0.00 0.00 0.00 0.00 0.00 0.00 0.00 0.00 0.00 0.00 0.00 0.00 0.00 0.01 0.01 0.01 0.00 0.00 0.00 0.00 0.00 0.00 0.00 0.00 0.01 0.01 0.02 0.02 0.02 0.04 0.04 0.05
0.00 0.00 0.00 0.00 0.00 0.00 0.00 0.00 0.00 0.00 0.00 0.00 0.00 0.00 0.00 0.00 0.00 0.00 0.00 0.00 0.01 0.01 0.00 0.01 0.01 0.01 0.01 0.00 0.00 0.00 0.00 0.00 0.01 0.02 0.02 0.03 0.04 0.05
0.00 0.00 0.00 0.00 0.00 0.00 0.00 0.00 0.00 0.00 0.00 0.00 0.00 0.00 0.00 0.00 0.00 0.00 0.00 0.00 0.00 0.00 0.00 0.01 0.01 0.01 0.02 0.01 0.00 0.00 0.00 0.00 0.01 0.01 0.02 0.03 0.04 0.05
0.00 0.00 0.00 0.00 0.00 0.00 0.00 0.00 0.00 0.00 0.00 0.00 0.00 0.00 0.00 0.00 0.00 0.00 0.00 0.00 0.00 0.00 0.00 0.00 0.01 0.01 0.01 0.02 0.01 0.00 0.00 0.01 0.01 0.01 0.02 0.03 0.04 0.05
0.00 0.00 0.00 0.00 0.00 0.00 0.00 0.00 0.00 0.00 0.00 0.00 0.00 0.00 0.00 0.00 0.00 0.00 0.00 0.00 0.00 0.00 0.00 0.00 0.00 0.01 0.01 0.01 0.01 0.01 0.00 0.01 0.01 0.02 0.02 0.03 0.04 0.04
0.00 0.00 0.00 0.00 0.00 0.00 0.00 0.00 0.00 0.00 0.00 0.00 0.00 0.00 0.00 0.00 0.00 0.00 0.00 0.00 0.00 0.00 0.00 0.00 0.00 0.00 0.00 0.01 0.01 0.00 0.01 0.01 0.01 0.02 0.03 0.03 0.04 0.04
0.01 0.01 0.00 0.00 0.00 0.00 0.00 0.00 0.00 0.00 0.00 0.00 0.00 0.00 0.00 0.00 0.00 0.00 0.00 0.00 0.01 0.00 0.00 0.00 0.00 0.00 0.00 0.00 0.00 0.00 0.01 0.01 0.02 0.03 0.03 0.03 0.03 0.04
0.01 0.01 0.00 0.00 0.00 0.00 0.01 0.01 0.01 0.00 0.00 0.00 0.00 0.00 0.00 0.00 0.00 0.00 0.00 0.00 0.01 0.00 0.00 0.00 0.00 0.02 0.02 0.01 0.00 0.01 0.01 0.02 0.02 0.03 0.04 0.03 0.03 0.03
0.00 0.00 0.00 0.00 0.01 0.01 0.01 0.01 0.01 0.00 0.00 0.00 0.00 0.00 0.00 0.01 0.01 0.01 0.00 0.01 0.01 0.01 0.00 0.00 0.00 0.01 0.03 0.03 0.02 0.00 0.01 0.02 0.03 0.03 0.03 0.04 0.03 0.03
0.00 0.00 0.01 0.01 0.01 0.01 0.01 0.01 0.01 0.00 0.00 0.00 0.00 0.00 0.00 0.01 0.01 0.01 0.01 0.01 0.01 0.01 0.01 0.00 0.00 0.00 0.01 0.03 0.02 0.00 0.00 0.01 0.02 0.04 0.04 0.05 0.05 0.04
0.00 0.01 0.01 0.01 0.01 0.01 0.01 0.01 0.01 0.01 0.00 0.01 0.01 0.00 0.01 0.01 0.01 0.01 0.01 0.01 0.01 0.01 0.01 0.00 0.00 0.00 0.01 0.03 0.02 0.01 0.01 0.01 0.01 0.02 0.03 0.05 0.07 0.06
0.01 0.01 0.01 0.01 0.01 0.01 0.01 0.01 0.01 0.01 0.00 0.00 0.01 0.01 0.01 0.01 0.01 0.01 0.01 0.01 0.01 0.01 0.01 0.01 0.00 0.00 0.01 0.01 0.02 0.01 0.01 0.01 0.01 0.02 0.02 0.02 0.03 0.03
MSLP
1020.96 1020.96 1020.98 1021.01 1021.03 1021.02 1020.99 1020.91 1020.80 1020.66 1020.51 1020.35 1020.18 1020.00 1019.80 1019.57 1019.30 1018.99 1018.61 1018.20 1017.76 1017.31 1016.87 1016.45 1016.06 1015.69 1015.36 1015.03 1014.69 1014.35 1013.98 1013.60 1013.21 1012.82 1012.44 1012.06 1011.69 1011.31
1020.77 1020.78 1020.81 1020.85 1020.88 1020.89 1020.86 1020.81 1020.72 1020.61 1020.48 1020.34 1020.20 1020.04 1019.86 1019.65 1019.39 1019.08 1018.72 1018.31 1017.87 1017.41 1016.96 1016.52 1016.11 1015.73 1015.37 1015.01 1014.66 1014.31 1013.94 1013.57 1013.20 1012.84 1012.49 1012.14 1011.80 1011.45
1020.51 1020.52 1020.55 1020.59 1020.63 1020.65 1020.64 1020.61 1020.56 1020.48 1020.38 1020.27 1020.15 1020.01 1019.84 1019.63 1019.38 1019.07 1018.70 1018.29 1017.85 1017.39 1016.93 1016.48 1016.06 1015.66 1015.28 1014.91 1014.55 1014.19 1013.82 1013.46 1013.10 1012.75 1012.41 1012.08 1011.77 1011.44
1020.15 1020.17 1020.20 1020.24 1020.29 1020.32 1020.33 1020.32 1020.29 1020.24 1020.18 1020.10 1020.00 1019.87 1019.70 1019.50 1019.23 1018.92 1018.54 1018.13 1017.68 1017.22 1016.76 1016.31 1015.89 1015.48 1015.10 1014.73 1014.36 1014.00 1013.63 1013.27 1012.91 1012.56 1012.22 1011.91 1011.60 1011.29
1019.70 1019.73 1019.77 1019.81 1019.86 1019.89 1019.92 1019.93 1019.92 1019.90 1019.86 1019.80 1019.71 1019.59 1019.43 1019.22 1018.95 1018.62 1018.25 1017.83 1017.38 1016.92 1016.46 1016.02 1015.60 1015.21 1014.83 1014.46 1014.10 1013.73 1013.37 1013.00 1012.64 1012.29 1011.95 1011.63 1011.33 1011.03
1019.16 1019.21 1019.26 1019.31 1019.35 1019.39 1019.42 1019.44 1019.45 1019.44 1019.41 1019.37 1019.29 1019.18 1019.02 1018.81 1018.54 1018.21 1017.84 1017.42 1016.98 1016.53 1016.08 1015.65 1015.24 1014.85 1014.48 1014.12 1013.76 1013.40 1013.03 1012.67 1012.30 1011.94 1011.60 1011.27 1010.96 1010.66
1018.55 1018.63 1018.69 1018.74 1018.79 1018.82 1018.85 1018.86 1018.87 1018.87 1018.86 1018.82 1018.76 1018.65 1018.50 1018.30 1018.04 1017.72 1017.36 1016.96 1016.53 1016.09 1015.66 1015.24 1014.84 1014.46 1014.09 1013.72 1013.36 1013.00 1012.63 1012.27 1011.90 1011.54 1011.19 1010.85 1010.53 1010.23
1017.90 1018.00 1018.08 1018.13 1018.17 1018.20 1018.21 1018.22 1018.23 1018.23 1018.22 1018.19 1018.14 1018.05 1017.92 1017.73 1017.50 1017.21 1016.87 1016.49 1016.09 1015.67 1015.25 1014.84 1014.44 1014.05 1013.68 1013.30 1012.93 1012.56 1012.19 1011.82 1011.45 1011.08 1010.73 1010.39 1010.06 1009.75
1017.22 1017.35 1017.43 1017.49 1017.52 1017.54 1017.54 1017.54 1017.54 1017.53 1017.53 1017.51 1017.47 1017.40 1017.30 1017.14 1016.94 1016.69 1016.39 1016.05 1015.68 1015.29 1014.89 1014.48 1014.08 1013.68 1013.28 1012.88 1012.49 1012.10 1011.71 1011.33 1010.96 1010.60 1010.24 1009.90 1009.57 1009.24
1016.55 1016.69 1016.78 1016.84 1016.87 1016.87 1016.86 1016.85 1016.83 1016.82 1016.81 1016.80 1016.78 1016.73 1016.66 1016.55 1016.39 1016.19 1015.94 1015.65 1015.32 1014.96 1014.57 1014.17 1013.76 1013.33 1012.91 1012.48 1012.06 1011.64 1011.23 1010.83 1010.45 1010.09 1009.74 1009.40 1009.06 1008.73
1015.90 1016.04 1016.14 1016.20 1016.21 1016.21 1016.19 1016.17 1016.14 1016.12 1016.11 1016.10 1016.09 1016.07 1016.02 1015.95 1015.84 1015.69 1015.49 1015.25 1014.97 1014.64 1014.28 1013.88 1013.46 1013.02 1012.56 1012.09 1011.63 1011.18 1010.74 1010.33 1009.94 1009.57 1009.22 1008.89 1008.55 1008.21
1015.26 1015.40 1015.50 1015.56 1015.58 1015.57 1015.54 1015.51 1015.48 1015.45 1015.43 1015.42 1015.41 1015.40 1015.38 1015.33 1015.27 1015.16 1015.02 1014.83 1014.59 1014.30 1013.97 1013.58 1013.16 1012.69 1012.21 1011.71 1011.20 1010.71 1010.25 1009.81 1009.40 1009.03 1008.68 1008.34 1008.00 1007.65
1014.62 1014.76 1014.87 1014.93 1014.96 1014.96 1014.93 1014.90 1014.86 1014.82 1014.79 1014.77 1014.75 1014.74 1014.73 1014.70 1014.66 1014.59 1014.49 1014.35 1014.15 1013.90 1013.60 1013.23 1012.81 1012.33 1011.82 1011.29 1010.75 1010.22 1009.72 1009.25 1008.82 1008.43 1008.06 1007.72 1007.37 1007.01
1013.96 1014.11 1014.23 1014.31 1014.36 1014.37 1014.36 1014.33 1014.28 1014.23 1014.19 1014.15 1014.12 1014.09 1014.07 1014.05 1014.02 1013.97 1013.90 1013.80 1013.64 1013.42 1013.14 1012.80 1012.38 1011.90 1011.37 1010.81 1010.24 1009.66 1009.12 1008.61 1008.14 1007.72 1007.33 1006.97 1006.60 1006.23
1013.29 1013.45 1013.59 1013.70 1013.77 1013.81 1013.81 1013.79 1013.75 1013.70 1013.64 1013.58 1013.52 1013.48 1013.44 1013.40 1013.37 1013.33 1013.27 1013.19 1013.05 1012.86 1012.61 1012.27 1011.86 1011.38 1010.83 1010.24 1009.62 1009.01 1008.41 1007.85 1007.33 1006.86 1006.43 1006.03 1005.64 1005.25
1012.59 1012.77 1012.94 1013.08 1013.19 1013.26 1013.29 1013.29 1013.25 1013.20 1013.13 1013.05 1012.98 1012.91 1012.85 1012.79 1012.75 1012.70 1012.64 1012.56 1012.43 1012.25 1012.00 1011.67 1011.25 1010.76 1010.19 1009.56 1008.89 1008.22 1007.56 1006.93 1006.35 1005.81 1005.32 1004.87 1004.44 1004.01
1011.88 1012.09 1012.29 1012.46 1012.60 1012.70 1012.77 1012.78 1012.77 1012.72 1012.65 1012.57 1012.48 1012.40 1012.32 1012.25 1012.19 1012.12 1012.05 1011.95 1011.81 1011.62 1011.35 1011.01 1010.57 1010.04 1009.43 1008.76 1008.04 1007.30 1006.56 1005.85 1005.19 1004.57 1004.01 1003.48 1002.99 1002.53
1011.16 1011.39 1011.62 1011.82 1011.99 1012.13 1012.22 1012.26 1012.27 1012.24 1012.19 1012.12 1012.04 1011.96 1011.87 1011.79 1011.71 1011.62 1011.52 1011.40 1011.23 1011.00 1010.69 1010.30 1009.82 1009.24 1008.58 1007.85 1007.06 1006.25 1005.43 1004.63 1003.88 1003.17 1002.51 1001.90 1001.34 1000.82
1010.44 1010.69 1010.93 1011.16 1011.35 1011.50 1011.62 1011.69 1011.73 1011.74 1011.72 1011.68 1011.63 1011.56 1011.49 1011.41 1011.31 1011.21 1011.07 1010.90 1010.68 1010.39 1010.02 1009.57 1009.02 1008.38 1007.65 1006.85 1006.00 1005.11 1004.21 1003.33 1002.47 1001.67 1000.91 1000.21 999.57 998.97
1009.73 1009.98 1010.22 1010.45 1010.65 1010.82 1010.96 1011.06 1011.14 1011.19 1011.22 1011.23 1011.22 1011.19 1011.14 1011.07 1010.97 1010.84 1010.66 1010.44 1010.15 1009.78 1009.34 1008.81 1008.18 1007.47 1006.67 1005.80 1004.88 1003.93 1002.96 1002.00 1001.06 1000.16 999.31 998.51 997.77 997.09
1009.01 1009.25 1009.48 1009.70 1009.90 1010.08 1010.23 1010.36 1010.48 1010.58 1010.67 1010.73 1010.78 1010.80 1010.78 1010.73 1010.62 1010.47 1010.25 1009.96 1009.59 1009.14 1008.61 1007.99 1007.29 1006.51 1005.65 1004.73 1003.76 1002.76 1001.74 1000.73 999.72 998.74 997.80 996.90 996.06 995.27
1008.28 1008.50 1008.71 1008.91 1009.10 1009.28 1009.45 1009.61 1009.77 1009.92 1010.06 1010.19 1010.29 1010.35 1010.37 1010.33 1010.22 1010.03 1009.76 1009.41 1008.96 1008.43 1007.81 1007.12 1006.34 1005.50 1004.61 1003.66 1002.67 1001.65 1000.61 999.57 998.52 997.48 996.46 995.46 994.50 993.60
1007.53 1007.73 1007.92 1008.11 1008.29 1008.46 1008.64 1008.83 1009.02 1009.22 1009.41 1009.59 1009.73 1009.84 1009.88 1009.84 1009.71 1009.49 1009.17 1008.74 1008.22 1007.61 1006.92 1006.16 1005.34 1004.47 1003.56 1002.61 1001.63 1000.63 999.60 998.55 997.49 996.41 995.32 994.23 993.16 992.13
Thickness
5507 5504 5502 5499 5497 5495 5493 5491 5490 5491 5493 5494 5494 5494 5494 5494 5495 5496 5498 5500 5503 5507 5510 5513 5516 5520 5523 5526 5530 5533 5536 5540 5544 5548 5552 5555 5559 5563
5495 5492 5489 5487 5485 5482 5480 5478 5477 5476 5477 5479 5478 5478 5478 5479 5480 5481 5483 5485 5488 5491 5494 5497 5500 5504 5507 5510 5514 5517 5521 5525 5529 5534 5537 5542 5546 5550
5483 5480 5477 5475 5472 5470 5467 5465 5464 5462 5462 5464 5464 5464 5464 5464 5466 5467 5469 5471 5473 5476 5479 5482 5485 5488 5491 5494 5498 5501 5505 5509 5514 5518 5523 5527 5532 5537
5471 5468 5465 5463 5460 5458 5455 5453 5451 5450 5449 5450 5450 5450 5450 5450 5451 5453 5455 5457 5458 5461 5464 5466 5469 5472 5475 5479 5482 5485 5489 5493 5498 5502 5508 5514 5519 5523
5460 5457 5454 5451 5449 5446 5443 5441 5439 5439 5437 5436 5436 5436 5436 5437 5438 5439 5440 5442 5444 5446 5449 5451 5453 5456 5459 5462 5465 5468 5473 5477 5482 5487 5492 5498 5503 5508
5449 5446 5443 5440 5438 5435 5433 5430 5428 5426 5424 5423 5424 5423 5423 5424 5424 5425 5427 5427 5429 5432 5433 5435 5437 5440 5442 5446 5449 5453 5457 5461 5466 5471 5477 5483 5488 5494
5438 5435 5433 5430 5428 5426 5423 5420 5417 5415 5413 5412 5411 5411 5411 5410 5410 5411 5411 5413 5415 5417 5418 5419 5422 5425 5427 5430 5432 5436 5441 5446 5451 5456 5461 5467 5473 5479
5428 5425 5422 5420 5418 5416 5414 5411 5408 5405 5402 5400 5399 5398 5398 5397 5397 5397 5397 5398 5400 5402 5403 5405 5407 5410 5412 5414 5418 5421 5425 5431 5436 5440 5445 5451 5457 5463
5418 5415 5413 5410 5408 5405 5403 5401 5398 5396 5394 5391 5389 5387 5386 5386 5385 5385 5384 5383 5384 5386 5387 5392 5394 5396 5398 5400 5404 5407 5411 5415 5419 5424 5429 5435 5441 5447
5408 5405 5402 5400 5397 5394 5391 5389 5386 5384 5383 5381 5379 5378 5377 5376 5374 5374 5372 5372 5372 5372 5373 5376 5380 5382 5386 5388 5390 5393 5396 5399 5404 5408 5414 5420 5426 5432
5399 5396 5392 5390 5388 5386 5383 5379 5377 5374 5373 5372 5370 5369 5367 5366 5364 5362 5360 5359 5360 5361 5359 5359 5364 5367 5373 5376 5376 5378 5380 5384 5388 5393 5398 5404 5410 5417
5390 5387 5385 5382 5380 5377 5374 5370 5367 5365 5362 5361 5359 5357 5355 5353 5352 5350 5347 5345 5344 5346 5347 5345 5347 5348 5356 5362 5363 5364 5366 5369 5373 5378 5383 5388 5394 5401
5381 5378 5376 5374 5372 5370 5366 5363 5360 5357 5353 5350 5347 5345 5343 5341 5339 5337 5335 5333 5331 5331 5332 5331 5331 5332 5334 5343 5350 5352 5352 5355 5359 5364 5368 5374 5379 5385
5374 5371 5368 5366 5363 5361 5358 5355 5352 5349 5344 5340 5337 5335 5333 5330 5328 5327 5325 5323 5321 5320 5320 5318 5317 5318 5320 5326 5334 5339 5340 5342 5345 5350 5355 5360 5365 5370
5366 5364 5360 5357 5354 5351 5349 5346 5343 5338 5334 5330 5328 5326 5323 5320 5318 5316 5315 5313 5312 5311 5310 5309 5308 5308 5308 5312 5318 5323 5326 5331 5334 5337 5342 5346 5351 5356
5358 5355 5353 5349 5345 5343 5339 5336 5333 5329 5325 5322 5319 5316 5313 5310 5308 5306 5304 5303 5302 5302 5301 5299 5299 5298 5299 5302 5304 5309 5312 5315 5322 5325 5329 5335 5340 5345
5348 5345 5341 5337 5334 5332 5329 5326 5323 5319 5316 5312 5309 5306 5304 5301 5299 5296 5294 5292 5291 5292 5292 5291 5289 5289 5290 5291 5295 5299 5302 5305 5308 5312 5316 5324 5331 5334
5340 5336 5333 5329 5327 5324 5321 5317 5313 5310 5307 5303 5299 5295 5293 5290 5288 5286 5283 5282 5281 5281 5281 5280 5280 5280 5282 5285 5287 5289 5292 5294 5298 5300 5303 5309 5319 5325
5333 5329 5326 5323 5319 5316 5312 5309 5305 5302 5298 5294 5290 5286 5283 5280 5277 5275 5274 5272 5271 5271 5270 5269 5268 5267 5269 5275 5280 5279 5279 5283 5286 5290 5293 5298 5305 5314
5326 5322 5319 5315 5312 5308 5304 5301 5298 5294 5290 5286 5282 5278 5274 5271 5269 5266 5264 5262 5262 5261 5261 5260 5258 5257 5258 5262 5267 5271 5270 5271 5275 5280 5284 5289 5295 5303
5318 5315 5311 5308 5305 5301 5298 5294 5290 5287 5283 5278 5275 5271 5267 5264 5262 5259 5257 5256 5255 5254 5254 5254 5253 5253 5252 5253 5257 5265 5267 5267 5267 5270 5275 5279 5286 5293
5311 5308 5304 5301 5298 5295 5291 5288 5284 5281 5277 5272 5269 5265 5262 5258 5256 5253 5251 5250 5249 5248 5248 5249 5249 5248 5247 5248 5252 5257 5261 5265 5267 5268 5270 5271 5273 5281
5304 5301 5298 5295 5292 5289 5285 5282 5278 5275 5271 5267 5264 5260 5257 5253 5251 5249 5247 5245 5244 5244 5244 5245 5245 5245 5245 5245 5247 5251 5255 5258 5262 5265 5269 5270 5272 5276